www.pogodaiklimat.ru
ПОГОДА на АЭС Дукованы
Время
(UTC), дата
04 30.05
05 30.05
06 30.05
08 30.05
07 30.05
09 30.05
10 30.05
11 30.05
12 30.05
14 30.05
13 30.05
15 30.05
16 30.05
17 30.05
18 30.05
20 30.05
19 30.05
21 30.05
22 30.05
23 30.05
00 31.05
02 31.05
01 31.05
03 31.05
04 31.05
05 31.05
06 31.05
08 31.05
07 31.05
09 31.05
10 31.05
11 31.05
12 31.05
14 31.05
13 31.05
15 31.05
16 31.05
17 31.05
18 31.05
20 31.05
19 31.05
21 31.05
22 31.05
23 31.05
00 1.06
02 1.06
01 1.06
03 1.06
04 1.06
05 1.06
06 1.06
08 1.06
07 1.06
09 1.06
10 1.06
11 1.06
12 1.06
14 1.06
13 1.06
15 1.06
16 1.06
17 1.06
18 1.06
20 1.06
19 1.06
21 1.06
22 1.06
23 1.06
00 2.06
02 2.06
01 2.06
03 2.06
04 2.06
05 2.06
06 2.06
08 2.06
07 2.06
09 2.06
10 2.06
11 2.06
12 2.06
14 2.06
13 2.06
15 2.06
16 2.06
17 2.06
18 2.06
20 2.06
19 2.06
21 2.06
22 2.06
23 2.06
00 3.06
02 3.06
01 3.06
03 3.06
04 3.06
05 3.06
06 3.06
08 3.06
07 3.06
09 3.06
10 3.06
11 3.06
12 3.06
14 3.06
13 3.06
15 3.06
16 3.06
17 3.06
18 3.06
20 3.06
19 3.06
21 3.06
22 3.06
23 3.06
00 4.06
02 4.06
01 4.06
03 4.06
04 4.06
05 4.06
06 4.06
08 4.06
07 4.06
09 4.06
10 4.06
11 4.06
12 4.06
14 4.06
13 4.06
15 4.06
16 4.06
17 4.06
18 4.06
20 4.06
19 4.06
21 4.06
22 4.06
23 4.06
00 5.06
02 5.06
01 5.06
03 5.06
04 5.06
05 5.06
06 5.06
08 5.06
07 5.06
09 5.06
10 5.06
11 5.06
12 5.06
14 5.06
13 5.06
15 5.06
16 5.06
17 5.06
18 5.06
20 5.06
19 5.06
21 5.06
22 5.06
23 5.06
00 6.06
02 6.06
01 6.06
03 6.06
04 6.06
Ветер
(напр.,м/с)
Видим. Явления Облачность Т
(С)
Тd
(С)
f
(%)
Тe
(С)
Тes
(С)
Комфортность P
(гПа)
Po
(гПа)
Тmin
(С)
Tmax
(С)
R
(мм)
R24
(мм)
S
(см)
С 4 30 км н/о +9.0 +4.1 71 +6 +6 1021.4 973.2
С 4 30 км 9/0
[Ac trans]
+9.3 +3.9 69 +7 +7 1021.1 972.9
С 5 30 км 9/0 2000 м
[Ac trans]
+9.5 +3.9 68 +6 +8 1021.1 972.9 +7.6 1.2
С 7 30 км 5/1 1200 м
[Cu med, cong Ac trans]
+12.8 +0.9 44 +10 +13 1019.9 972.3
С 5 30 км 9/9 1500 м
[Sc]
+10.4 +3.2 61 +8 +8 1020.8 972.8
С 6-11
{11}
35 км 4/3 1260 м
[Cu med, cong Ac trans]
+13.8 +2.4 46 +12 +16 1019.6 972.2 1.2
СВ 5 35 км 5/5 1500 м
[Cu med, cong]
+15.0 +2.2 42 +14 +18 1019.1 971.9
СВ 5 30 км 9/9 1500 м
[Cu med, cong]
+14.1 +2.7 46 +13 +14 1019.1 971.8
С 7
{11}
30 км 9/9 1500 м
[Cu Sc]
+13.7 +2.9 48 +12 +12 1019.0 971.6 1.3
30 км 8/4 1500 м
[Cu med, cong Ac trans]
+14.4 +4.7 52 1018.3 971.1
С 6 30 км 9/9 1470 м
[Cu Sc]
+14.4 +4.4 51 +13 +13 1018.6 971.4
С 7 30 км 8/8 1500 м
[Cu med, cong]
+15.7 +3.5 44 +14 +15 1017.9 970.9 1.4
СВ 4-11
{12}
30 км 9/9 1500 м
[Sc]
+13.8 +3.6 50 +13 +13 1018.4 971.1
С 2 30 км 8/8 1500 м
[Cu Sc]
+15.1 +5.6 53 +15 +15 1018.2 971.1
СЗ 5
{11}
30 км 8/4 1500 м
[Cu med, cong Ac trans]
+13.1 +4.5 56 +11 +11 1018.6 971.2 +17.0 1.4
СЗ 4 30 км 5/0
[Ac trans Ci sp]
+10.0 +3.9 66 +8 +8 1019.7 971.7
СЗ 5 30 км 6/4 1500 м
[Sc Ci sp]
+11.2 +4.2 62 +9 +9 1019.3 971.5
СЗ 5 30 км н/о +9.5 +4.1 69 +6 +6 1019.9 971.8 1.4
СЗ 4 29 км н/о +9.2 +4.4 72 +6 +6 1019.8 971.7
СЗ 5 30 км н/о +9.1 +3.9 70 +6 +6 1019.3 971.2
СЗ 5 29 км н/о +8.7 +4.4 74 +5 +5 1019.0 970.8 1.4
СЗ 5 30 км н/о +8.8 +3.6 70 +6 +6 1017.9 969.8
СЗ 5 29 км н/о +8.7 +4.1 73 +5 +5 1018.4 970.2
СЗ 5 30 км н/о +8.7 +3.6 70 +5 +5 1017.6 969.5 1.3
СЗ 4 30 км н/о +9.0 +3.6 69 +6 +6 1017.3 969.2
СЗ 5 28 км 10/0
[Ac As]
+9.1 +4.1 71 +6 +6 1017.2 969.2
СЗ 6 25 км слаб. дождь 10/10 1500 м
[Sc]
+9.3 +5.1 75 +6 +6 1017.3 969.3 +8.4 0.0 1.3
СЗ 7 20 км слаб. дождь 10/10 700 м
[Sc]
+8.6 +6.2 85 +4 +4 1016.9 968.8
СЗ 6 12 км слаб. дождь 10/10 720 м
[Sc]
+8.4 +6.5 88 +4 +4 1017.1 969.0
СЗ 6 20 км слаб. дождь 10/10 1140 м
[Sc]
+8.7 +6.8 88 +5 +5 1016.9 968.8 1.2
СЗ 7
{11}
20 км слаб. дождь 10/10 1000 м
[Sc]
+9.4 +6.7 83 +5 +5 1016.5 968.6
СЗ 6
{13}
30 км в посл. час дождь 10/10 500 м
[Sc]
+9.7 +7.1 84 +6 +6 1016.8 968.9
СЗ 7 30 км {дождь} 10/10 600 м
[Sc]
+9.9 +7.2 83 +6 +6 1016.7 968.9 3 1.2
СЗ 5 25 км слаб. дождь 10/10 630 м
[Sc]
+10.3 +7.7 84 +7 +7 1017.5 969.7
СЗ 6 25 км слаб. дождь 10/10 540 м
[Sc]
+10.0 +7.6 85 +7 +7 1017.2 969.4
СЗ 5 20 км слаб. дождь 10/10 720 м
[Sc]
+10.6 +8.2 85 +8 +8 1017.7 969.9 1.2
СЗ 5 20 км в посл. час дождь 10/10 700 м
[Sc]
+11.2 +8.6 84 +8 +8 1017.4 969.8
СЗ 5 20 км 10/10 900 м
[Sc]
+11.3 +8.7 84 +9 +9 1017.7 970.1
СЗ 6 25 км {дождь} 10/10 1200 м
[Sc]
+11.7 +8.9 83 +9 +9 1018.0 970.4 +11.7 3 1.2
СЗ 6 25 км 10/10 1300 м
[Sc]
+12.2 +9.2 82 +10 +10 1018.8 971.3
СЗ 6 25 км 10/10 1380 м
[Sc]
+11.9 +9.1 83 +9 +9 1018.5 970.9
СЗ 6 24 км н/о +12.1 +9.4 84 +9 +9 1019.1 971.5 1.2
С 6 23 км н/о +11.9 +9.5 85 +9 +9 1019.4 971.8
СЗ 4 23 км н/о +11.9 +9.3 84 +10 +10 1019.6 972.0
С 5 21 км н/о +10.4 +8.9 90 +7 +7 1019.8 971.9 1.2
СЗ 5 20 км н/о +9.7 +8.4 92 +6 +6 1019.6 971.6
С 6 22 км н/о +10.6 +8.8 89 +7 +7 1019.5 971.7
С 6 16 км н/о +9.5 +8.2 92 +6 +6 1019.7 971.7 1.2
С 6 21 км н/о +10.1 +8.3 89 +7 +7 1019.7 971.8
С 6 20 км 4/0
[Ac trans]
+12.8 +9.3 79 +10 +11 1019.5 972.0
С 6 25 км 3/0 2000 м
[Ac trans]
+14.5 +9.9 74 +13 +14 1019.5 972.3 +9.3 3.1
СЗ 5 30 км 8/1 900 м
[Cu med, cong Ac trans]
+18.0 +10.6 62 +18 +21 1019.3 972.7
С 6 30 км 6/0
[Ac trans]
+16.5 +10.8 69 +15 +18 1019.4 972.5
С 6 30 км 8/8 1320 м
[Cu Sc]
+17.7 +9.1 57 +17 +18 1019.3 972.6 1.2
С 7 30 км 8/8 1300 м
[Cu med, cong]
+19.1 +7.8 48 +19 +20 1018.7 972.2
С 6
{11}
30 км 8/8 1500 м
[Cu med, cong]
+19.4 +5.1 39 +20 +21 1018.4 972.0 1.2
С 6 30 км 6/6 1500 м
[Cu med, cong]
+20.1 +7.8 45 +21 +24 комфорт 1018.3 972.0 1.3
С 7
{12}
35 км 5/5 1500 м
[Cu med, cong]
+20.9 +6.8 40 +22 +23 комфорт 1017.4 971.3
С 7
{11}
30 км 5/5 1500 м
[Cu med, cong]
+20.4 +6.4 40 +21 +23 комфорт 1017.8 971.6
С 7-13
{13}
35 км 4/4 1500 м
[Cu hum]
+20.4 +6.0 39 +21 +22 комфорт 1017.2 971.0 1.4
С 7
{11}
35 км 3/3 1500 м
[Cu hum]
+20.1 +5.7 39 +20 +21 1017.1 970.8
С 7 30 км 1/1 1500 м
[Cu hum]
+19.1 +4.8 39 +19 +19 1017.2 970.8
С 5-10
{13}
30 км 1/1 1500 м
[Cu hum Ci fib]
+17.9 +5.2 43 +18 +18 1017.5 970.9 +21.6 1.4
С 5 30 км ясно +14.8 +4.2 49 +14 +14 1018.6 971.4
С 4 30 км 1/1 1200 м
[Sc Ci fib]
+15.3 +5.8 53 +14 +14 1018.2 971.1
С 6 30 км н/о +14.6 +2.7 45 +13 +13 1018.7 971.5 1.4
СЗ 5 30 км н/о +12.3 +3.5 55 +10 +10 1019.4 971.8
С 5 30 км н/о +10.3 +3.8 64 +8 +8 1019.4 971.5
СЗ 4 28 км н/о +9.0 +4.1 71 +6 +6 1019.4 971.2 1.4
С 4 29 км н/о +7.3 +4.2 81 +4 +4 1018.5 970.1
С 4 28 км н/о +7.9 +4.3 78 +5 +5 1019.0 970.7
С 4 28 км н/о +6.8 +4.0 82 +3 +3 1018.5 970.0 1.3
СЗ 4 18 км н/о +9.8 +4.0 67 +7 +7 1017.7 969.8
СЗ 4 25 км 1/0
[Ac lent Ci fib]
+12.0 +5.4 64 +10 +11 1017.0 969.5
СЗ 6 30 км 1/0
[Ac trans Ci fib]
+14.5 +6.1 57 +13 +15 1016.1 969.0 +6.7 1.3
С 9
{13}
30 км 5/1 1300 м
[Cu hum Ac trans Ci fib]
+17.1 +6.6 50 +16 +17 1015.3 968.7
С 8
{11}
30 км 4/0
[Ac trans]
+16.1 +5.7 50 +15 +16 1015.8 969.0
С 10
{14}
35 км 8/6 1470 м
[Cu med, cong Ac lent]
+18.9 +7.7 48 +18 +19 1014.8 968.5 1.3
С 10
{17}
30 км 8/6 1440 м
[Cu med, cong Ac lent]
+16.7 +6.5 51 +15 +15 1015.3 968.6
С 9-15
{16}
30 км 9/8 1230 м
[Cu med, cong Ac As]
+16.5 +7.7 56 +15 +15 1015.4 968.7
СЗ 8-13
{15}
12 км слаб. ливневой дождь 9/9 1440 м
[Cu med, cong]
+15.6 +7.9 60 +14 +14 1015.6 968.7 0.0 1.3
С 10-15
{15}
35 км 9/5 1200 м
[Cu med, cong Ac As]
+17.2 +8.1 55 +16 +16 1014.4 967.8
СЗ 9
{15}
35 км в посл. час ливневой дождь 9/8 1020 м
[Cu med, cong Ac trans]
+17.3 +9.7 61 +16 +16 1014.8 968.3
СЗ 8
{15}
35 км {ливн. осадки} 9/3 1200 м
[Cu med, cong Ac As]
+16.9 +8.6 58 +16 +16 1013.7 967.1 1.4
С 6
{13}
30 км 9/3 1020 м
[Cu med, cong Ac As]
+17.0 +8.9 59 +16 +17 1013.1 966.6
С 7
{11}
35 км 8/1 1500 м
[Cu med, cong Ac inh]
+15.8 +7.8 59 +14 +15 1012.7 966.0
С 4
{15}
12 км слаб. ливневой дождь 9/4 1500 м
[Cb calv Ac As]
+14.6 +9.0 69 +13 +14 1012.5 965.6 +19.3 0.1 1.5
З 2 25 км 9/5 1500 м
[Sc Ac As]
+12.3 +10.2 87 +11 +11 1011.9 964.7
СВ 3 20 км слаб. дождь 10/10 1200 м
[Sc]
+12.6 +10.3 86 +11 +11 1012.6 965.4
СЗ 6 9000 м ливневой дождь н/о +12.2 +10.5 89 +9 +9 1012.3 965.1 1.5
СЗ 6 30 км слаб. ливневой дождь н/о +12.1 +9.9 86 +9 +9 1011.3 964.1
СЗ 6 5000 м ливневой дождь н/о +11.3 +9.7 90 +8 +8 1011.4 964.1
С 4 26 км слаб. ливневой дождь н/о +11.0 +9.9 93 +8 +8 1010.8 963.5 5 1.4
СЗ 4 30 км н/о +9.4 +8.5 94 +6 +6 1009.3 961.7
СЗ 5 30 км {ливн. осадки} н/о +10.3 +9.3 94 +7 +7 1009.8 962.4
СЗ 4 30 км {ливн. осадки} н/о +9.8 +8.3 90 +7 +7 1008.5 961.0 1.4
СЗ 4 25 км н/о +10.5 +8.9 90 +8 +8 1007.9 960.6
СЗ 3 30 км 4/0
[Ac trans Ci fib]
+12.9 +9.9 82 +12 +13 1007.4 960.5
СЗ 5 30 км 4/0
[Ac trans Ci fib]
+15.6 +11.6 77 +14 +17 1006.7 960.3 +8.8 5 5.1
С 5 30 км 4/1 1110 м
[Cu hum Ac trans Ci fib]
+19.4 +12.7 65 +21 +25 комфорт 1005.8 960.0
СЗ 5 35 км 4/1 840 м
[Cu hum Ac trans Ci fib]
+17.5 +11.1 66 +17 +20 1006.2 960.1
С 7 30 км 6/3 1230 м
[Cu hum Ac As]
+19.8 +11.0 57 +21 +23 комфорт 1005.6 959.9 1.3
СЗ 6-11
{11}
30 км 8/6 1350 м
[Cu med, cong Ac trans]
+20.2 +10.9 55 +22 +23 комфорт 1005.2 959.6
С 9
{15}
30 км 8/8 1500 м
[Cu med, cong Ci fib]
+21.1 +10.0 49 +23 +23 комфорт 1004.7 959.2
С 7-12
{12}
35 км 6/6 1500 м
[Cu med, cong Ci fib]
+21.8 +10.0 47 +23 +25 комфорт 1003.9 958.6 1.4
С 6 30 км в посл. час ливневой дождь 8/4 1200 м
[Cb calv Ac As]
+20.9 +11.0 53 +23 +24 комфорт 1003.2 957.8
С 5-10
{11}
30 км 6/6 1500 м
[Cb calv Ci fib]
+19.8 +9.1 50 +21 +24 комфорт 1004.2 958.5
С 5 30 км {ливн. осадки} 6/3 1500 м
[Cu med, cong Ac As Ci fib]
+21.3 +8.6 44 +22 +25 комфорт 1002.8 957.4 1.5
С 4 30 км 9/3 1320 м
[Cu med, cong Ac As]
+20.4 +9.0 48 +22 +23 комфорт 1002.9 957.4
С 3 30 км 9/3 1020 м
[Cb calv Ac As Ci fib]
+20.0 +9.9 52 +22 +22 комфорт 1002.7 957.1
СВ 2 30 км {ливн. осадки} 9/4 960 м
[Cb calv Ac As Ci fib]
+18.6 +9.1 54 +20 +20 1002.8 957.0 +22.2 0.0 1.6
СЗ 3 30 км 8/3 1200 м
[Sc As trans Ci fib]
+15.4 +9.1 66 +15 +15 1003.5 957.2
30 км 9/8 1500 м
[Sc Ac As]
+17.7 +8.8 56 1003.3 957.3
нст 2 30 км н/о +13.3 +8.4 72 +13 +13 1003.1 956.5 1.6
С 3 28 км н/о +12.3 +9.3 82 +11 +11 1003.3 956.5
СВ 2 27 км н/о +11.4 +8.4 82 +10 +10 1002.9 956.0
нст 1 28 км н/о +13.2 +8.5 73 +13 +13 1002.1 955.5 1.5
СВ 2 27 км н/о +11.4 +8.7 83 +10 +10 1000.9 954.1
С 3 25 км н/о +11.8 +9.2 84 +10 +10 1001.7 954.9
В 1 25 км н/о +10.8 +8.3 85 +10 +10 1000.6 953.7 1.5
В 2 22 км н/о +10.6 +8.2 85 +9 +9 1000.2 953.3
20 км 4/0
[Ac trans Ci fib]
+12.9 +9.3 79 999.9 953.4
В 2 25 км 8/0
[Ac trans Ci fib]
+14.7 +9.9 73 +14 +18 999.5 953.3 +10.4 1.4
В 3 30 км 9/0
[Ci fib]
+17.6 +11.4 67 +18 +26 998.6 952.9
35 км 8/0
[Ac trans Ci fib]
+15.7 +10.7 72 999.1 953.1
ЮВ 4 30 км 8/0
[Ac trans Ci fib]
+18.2 +11.0 63 +18 +26 998.2 952.6 1.4
ЮВ 4 30 км 9/1 800 м
[Cu hum Ac trans Ci fib]
+19.9 +11.4 58 +21 +27 комфорт 997.8 952.5
ЮВ 5 30 км 9/1 1000 м
[Cu hum Ac As]
+20.2 +11.9 59 +22 +25 комфорт 997.4 952.1
ЮВ 4 30 км 9/1 1140 м
[Cu hum Ac As]
+20.4 +11.1 55 +22 +26 комфорт 997.2 952.0 1.5
ЮВ 6 30 км 9/4 1200 м
[Cu med, cong Ac As]
+21.4 +10.3 49 +23 +24 комфорт 995.8 950.8
ЮВ 6 35 км 9/1 1110 м
[Cu med, cong Ac As]
+21.0 +10.8 52 +23 +25 комфорт 996.5 951.4
ЮВ 5 30 км 9/3 1200 м
[Cu med, cong Ac As]
+20.7 +11.3 55 +23 +24 комфорт 995.6 950.5
ЮВ 3 30 км 9/3 1380 м
[Cu med, cong Ac As]
+21.0 +11.9 56 +24 +25 комфорт 994.7 949.7
В 3 30 км 9/1 1200 м
[Cu med, cong Ac As]
+20.9 +12.9 60 +24 +24 комфорт 994.1 949.1
СЗ 1 25 км слаб. дождь 9/9 1320 м
[Sc]
+20.3 +12.8 62 +23 +23 комфорт 993.6 948.5 +22.0 0.1 1.6
20 км 9/0
[Ac trans]
+17.1 +11.4 69 994.0 948.4
СВ 3 22 км в посл. час дождь 9/3 1200 м
[Cb calv Ac trans]
+16.9 +11.8 72 +17 +17 993.8 948.2
нст 1 30 км {ливн. осадки, дождь} н/о +16.2 +11.9 76 +17 +17 994.2 948.5 1.6
28 км н/о +15.9 +12.3 79 994.4 948.6
СЗ 3 24 км н/о +14.8 +12.4 86 +14 +14 995.2 949.2
СЗ 3 30 км {ливн. осадки, дождь} н/о +15.2 +11.5 79 +15 +15 995.2 949.3 0.0 1.6
ЮЗ 1 30 км в посл. час дождь {ливн. осадки} н/о +13.1 +11.2 88 +13 +13 996.0 949.7
СЗ 3 19 км слаб. дождь н/о +13.8 +11.1 84 +13 +13 995.6 949.4
З 2 13 км слаб. дождь н/о +12.9 +11.4 91 +12 +12 996.1 949.8 1.6
ЮЗ 1 29 км в посл. час дождь {ливн. осадки} н/о +13.0 +11.8 92 +13 +13 996.6 950.3
ЮЗ 3 10 км слаб. дождь 10/10 500 м
[Sc]
+12.7 +12.1 96 +11 +11 997.2 950.8
З 2 12 км слаб. дождь 10/10 840 м
[Sc]
+13.5 +12.7 95 +13 +13 997.5 951.2 +12.7 2 2.5
ЮЗ 4 15 км слаб. дождь 10/10 1500 м
[Sc]
+13.9 +12.6 92 +12 +12 998.0 951.8
ЮЗ 3 12 км слаб. дождь 10/10 400 м
[Sc]
+13.3 +12.7 96 +12 +12 998.1 951.8
З 5 20 км слаб. дождь 10/10 600 м
[Sc]
+14.4 +12.3 87 +13 +13 998.3 952.1 1.5
З 5 30 км 10/6 540 м
[Sc Ac As]
+16.0 +12.4 79 +15 +16 998.1 952.2
З 5 30 км 9/9 630 м
[Cu Sc]
+17.7 +12.4 71 +17 +18 998.2 952.5
З 3 30 км в посл. час дождь 9/9 500 м
[Cu Sc]
+15.2 +11.4 78 +15 +16 999.2 953.1 3 1.5
СЗ 6 30 км 9/9 1500 м
[Sc]
+15.0 +7.8 62 +13 +14 1000.2 954.0
СЗ 7 30 км 9/9 1500 м
[Sc]
+14.4 +10.0 75 +12 +13 1000.4 954.1
нст 2 35 км 8/0
[Ac As]
+17.4 +8.5 56 +18 +21 1000.0 954.1 1.5
35 км 6/0
[Ac As]
+18.2 +8.5 53 999.7 954.0
Ю 4 35 км 4/4 800 м
[Cu med, cong]
+16.5 +10.1 66 +16 +17 1000.4 954.4
Ю 5 30 км 4/4 500 м
[Cu med, cong]
+14.7 +11.1 79 +13 +13 1001.2 954.9 +18.3 3 1.6
ЮЗ 2 20 км 3/0
[Ac As]
+13.0 +11.4 90 +12 +12 1003.0 956.4
Ю 3 30 км 6/6 300 м
[Cu med, cong]
+13.9 +11.8 87 +13 +13 1002.0 955.6
ЮЗ 4 26 км н/о +12.6 +10.3 86 +11 +11 1003.8 957.0 1.6
ЮЗ 3 30 км н/о +12.3 +8.7 79 +11 +11 1004.2 957.4
Ю 3 30 км в посл. час дождь {ливн. осадки} н/о +11.9 +8.8 81 +10 +10 1004.8 957.9
Ю 3 30 км {ливн. осадки, дождь} н/о +11.6 +8.4 81 +10 +10 1005.1 958.1 0.0 1.5
ЮЗ 2 30 км н/о +10.1 +7.8 86 +9 +9 1005.9 958.6
ЮЗ 3 29 км н/о +10.8 +8.3 85 +9 +9 1005.6 958.4
ЮЗ 2 30 км н/о +9.8 +7.3 84 +8 +8 1006.1 958.7 1.5
Ю 3 35 км н/о +10.5 +7.5 82 +8 +8 1006.6 959.3
Местоположение метеостанции АЭС Дукованы (Чехия): широта 49.10 долгота 16.13 высота над уровнем моря 405 м.
В архиве по умолчанию представлена погода на АЭС Дукованы за последнюю неделю. Архивные данные за месяц целиком и за предыдущие месяцы, начиная с января 2011 года, Вы можете получить, выбрав интересующий диапазон дат из раскрывающегося списка и нажав кнопку "Найти!".
*Определитесь, кто Вы:
Внимание! Время в таблицах - всемирное. Для получения местного времени необходимо прибавить поправку, которая равна 1 ч.
Смотрите также архив погоды в соседних городах и на ближайших метеорологических станциях:
Партнеры нашего сайта:      
Пояснения к столбцам:
  • Ветер - указаны скорость ветра в м/с - средняя за 10 мин, порывы в срок и между сроками (в фигурных скобках) и направление, откуда дует ветер: С - северный,
  • СВ - северо-восточный, В - восточный, ЮВ - юго-восточный, Ю - южный, ЮЗ - юго-западный, З - западный, СЗ - северо-западный.
  • Видимость - горизонтальная дальность видимости в метрах или километрах. При видимости от 1 до 10 км при отсутствии осадков обычно наблюдается дымка, при ухудшении видимости до 1 км и менее - туман. В сухую погоду видимость может ухудшаться дымом, пылью или мглою.
  • Явления - указаны атмосферные явления, наблюдавшиеся в срок или в последний час перед сроком; фигурными скобками обозначены явления, наблюдавшиеся между сроками (за 1-3 часа до срока); квадратными скобками обозначены град или гололедные отложения с указанием их диаметра в мм.
  • Облачность - указаны через наклонную черту общая и нижняя облачность в баллах и высота нижней границы облаков в метрах; квадратными скобками обозначены формы облаков: Ci - перистые, Cs - перисто-слоистые, Cc - перисто-кучевые, Ac - высококучевые, As - высокослоистые, Sc - слоисто-кучевые, Ns - слоисто-дождевые, Cu - кучевые, Cb - кучево-дождевые. Подробнее классификацию облаков см. в Атласе облаков (PDF).
  • T - Температура воздуха - температура, измеренная на высоте 2 м над землей.
  • Td - Температура точки росы - температура, при понижении до которой содержащийся в воздухе водяной пар достигнет насыщения.
  • f - Относительная влажность воздуха - влажноcть воздуха, измеренная на высоте 2 м над землей.
  • Te - Эффективная температура - температура, которую ощущает одетый по сезону человек в тени. Характеристика душности погоды. При расчете учитывается влияние влажности воздуха и скорости ветра на теплоощущения человека.
  • Tes - Эффективная температура на солнце - температура, которую ощущает человек, с поправкой на солнечный нагрев. Характеристика знойности погоды. Зависит от высоты солнца над горизонтом, облачности и скорости ветра. Ночью, в пасмурную погоду, а также при ветре 12 м/с и более поправка равна нулю.
  • P - Атмосферное давление - приведенное к уровню моря атмосферное давление.
  • Po - Атмосферное давление - измеренное на уровне метеостанции атмосферное давление.
  • Tmin - Минимальная температура - минимум температуры воздуха на высоте 2 м над землей.
  • Tmax - Максимальная температура - максимум температуры воздуха на высоте 2 м над землей.
  • R - Количество осадков - Количество выпавших осадков за период времени, мм. При наведении курсора мыши на число - период времени, за который выпало указанное количество осадков.
  • R24 - Количество осадков - Количество выпавших осадков за 24 часа, мм.
  • S - Снежный покров - Высота снежного покрова, см. При наведении курсора мыши на число - состояние снежного покрова и степень покрытия местности в баллах.